JCSAT-15

Last updated on Thu Mar 10 2022 00:02:39 GMT+0000 (Coordinated Universal Time)

1 41903U 16082A 22068.60274897 -.00000354 00000+0 00000+0 0 9996 2 41903 0.0177 164.9988 0001480 180.4508 148.8456 1.00271417 19119
UTC large
Height (km)
Speed (km/s)
/
Latitude / Longitude
Inclination (degrees)
Orbital Period (minutes)
Azimuth
Elevation
Range (km)
Doppler Factor

Next 0 passes for location: London (51.5072 / 0.1276)

Sorry there are no passes over London.